Location: Newark
(40.3500°N, 15.2333°E)
Time: 12:27:35
(UTC+00:00)

KAITUO 1B - Visible Passes

Search period start: 18 February 2020 00:00
Search period end: 28 February 2020 00:00
Orbit: 494 x 516 km, 97.5° (Epoch: 18 February)

Date Brightness Start Highest point End Pass type
(mag) Time Alt. Az. Time Alt. Az. Time Alt. Az.
19 Feb ? 17:38:37 10° WSW 17:40:30 14° W 17:42:24 10° WNW visible
20 Feb ? 05:06:55 10° NNE 05:10:33 52° E 05:14:12 10° S visible
20 Feb ? 17:19:33 10° SSW 17:22:26 22° W 17:25:22 10° NW visible
21 Feb ? 04:49:15 10° NNE 04:52:35 30° E 04:55:54 10° SSE visible
21 Feb ? 17:01:02 10° SSW 17:04:26 37° W 17:07:52 10° NNW visible
22 Feb ? 04:31:52 10° NE 04:34:33 19° E 04:37:14 10° SE visible
23 Feb ? 04:15:14 10° ENE 04:16:29 11° E 04:17:44 10° ESE visible
24 Feb ? 17:43:13 10° WSW 17:44:42 12° W 17:46:12 10° WNW visible
25 Feb ? 05:11:03 10° NNE 05:14:45 60° E 05:18:27 10° S visible
25 Feb ? 17:23:54 10° SW 17:26:38 20° W 17:29:24 10° NW visible
26 Feb ? 04:53:19 10° NNE 04:56:46 34° E 05:00:13 10° SSE visible
27 Feb ? 04:35:51 10° NE 04:38:45 21° E 04:41:39 10° SE visible
